EW8311 Weather Reports


Display with metric or nautical units.
time (UTC)temp
F
wind
direction
speed
MPH
gust
MPH
rain 1hr
in
rain 24hr
in
rain mn
in
humidity
%
barometer
mb
20260902030004 84 124 0.0 0.0 0.00 0.00 0.00 51 1006.6
20260902024503 85 125 0.0 0.0 0.00 0.00 0.00 49 1006.3
20260902023011 85 125 0.0 1.0 0.00 0.00 0.00 47 1006.2
20260902021502 87 129 0.0 2.0 0.00 0.00 0.00 45 1005.9
20260902020001 86 315 0.0 1.0 0.00 0.00 0.00 46 1005.8
20260902014500 87 297 0.0 2.0 0.00 0.00 0.00 45 1005.6
20260902013102 89 304 1.0 5.0 0.00 0.00 0.00 43 1005.6
20260902011631 90 314 2.0 6.0 0.00 0.00 0.00 42 1005.5
20260902010059 91 269 1.0 6.0 0.00 0.00 0.00 42 1005.4
20260902004558 91 269 2.0 7.0 0.00 0.00 0.00 42 1005.6
20260902003104 92 327 2.0 8.0 0.00 0.00 0.00 40 1005.7
20260902001558 92 349 2.0 7.0 0.00 0.00 0.00 40 1005.9
20260902000059 92 282 2.0 7.0 0.00 0.00 0.00 40 1006.0
20260901234600 92 321 2.0 10.0 0.00 0.00 0.00 39 1006.2
20260901233051 93 319 3.0 8.0 0.00 0.00 0.00 37 1006.3
20260901231606 93 289 2.0 5.0 0.00 0.00 0.00 38 1006.4
20260901230058 93 312 2.0 8.0 0.00 0.00 0.00 38 1006.6
20260901224546 93 262 3.0 8.0 0.00 0.00 0.00 36 1006.7
20260901223045 92 295 3.0 7.0 0.00 0.00 0.00 38 1006.8
20260901221606 93 307 4.0 8.0 0.00 0.00 0.00 37 1007.1
20260901220049 92 321 2.0 8.0 0.00 0.00 0.00 37 1007.3
20260901214538 91 336 3.0 9.0 0.00 0.02 0.00 39 1007.6
20260901213042 93 326 3.0 7.0 0.00 0.02 0.00 38 1007.9
20260901211533 92 330 2.0 5.0 0.00 0.02 0.00 38 1008.1
20260901210032 91 326 2.0 7.0 0.00 0.02 0.00 39 1008.3
20260901204529 90 94 2.0 8.0 0.00 0.12 0.00 38 1008.6
20260901203029 91 326 1.0 5.0 0.00 0.12 0.00 38 1008.8
20260901201524 91 243 1.0 5.0 0.00 0.12 0.00 39 1009.2
20260901200033 90 327 1.0 6.0 0.00 0.12 0.00 41 1009.3
20260901194522 92 316 1.0 6.0 0.00 0.18 0.00 38 1009.4
20260901193019 90 110 1.0 5.0 0.00 0.18 0.00 40 1009.7
20260901191523 88 325 2.0 5.0 0.00 0.18 0.00 43 1009.8
20260901190022 88 317 3.0 6.0 0.00 0.18 0.00 43 1010.1
20260901184514 87 307 2.0 7.0 0.00 0.23 0.00 45 1010.1
20260901183011 87 314 2.0 6.0 0.00 0.23 0.00 46 1010.4
20260901181516 86 318 2.0 6.0 0.00 0.23 0.00 46 1010.5
20260901180008 86 255 0.0 2.0 0.00 0.23 0.00 44 1010.5
20260901174507 86 309 1.0 3.0 0.00 0.23 0.00 45 1010.6
20260901173005 85 311 0.0 2.0 0.00 0.23 0.00 47 1010.8
20260901171505 85 300 1.0 3.0 0.00 0.23 0.00 47 1010.8
20260901170001 83 249 0.0 1.0 0.00 0.23 0.00 50 1010.7
20260901164617 82 265 0.0 2.0 0.00 0.23 0.00 54 1010.7
20260901163057 81 271 0.0 2.0 0.00 0.23 0.00 55 1010.7
20260901161555 81 91 0.0 0.0 0.00 0.23 0.00 60 1010.6
20260901160108 80 254 0.0 0.0 0.00 0.23 0.00 60 1010.6
20260901154552 79 136 0.0 2.0 0.00 0.23 0.00 63 1010.7
20260901153100 78 127 0.0 0.0 0.00 0.23 0.00 64 1010.8
20260901151545 76 297 0.0 1.0 0.00 0.23 0.00 69 1010.9
20260901150050 76 321 0.0 0.0 0.00 0.23 0.00 70 1010.9
20260901144543 74 321 0.0 0.0 0.00 0.23 0.00 74 1010.9
20260901143035 73 321 0.0 0.0 0.00 0.23 0.00 77 1010.8
20260901141531 72 321 0.0 0.0 0.00 0.23 0.00 84 1010.7
20260901140044 70 321 0.0 0.0 0.00 0.23 0.00 87 1010.6
20260901134527 68 321 0.0 0.0 0.00 0.23 0.00 90 1010.4
20260901133027 67 321 0.0 0.0 0.00 0.23 0.00 91 1010.5
20260901131534 67 321 0.0 0.0 0.00 0.23 0.00 90 1010.1
20260901130022 67 321 0.0 0.0 0.00 0.23 0.00 89 1009.8
20260901124521 67 321 0.0 0.0 0.00 0.25 0.00 88 1009.7
20260901123018 67 321 0.0 0.0 0.00 0.25 0.00 89 1009.4
20260901121518 67 321 0.0 0.0 0.00 0.25 0.00 88 1009.2
20260901120019 68 321 0.0 0.0 0.00 0.25 0.00 88 1009.2
20260901114514 67 321 0.0 0.0 0.00 0.25 0.00 89 1009.1
20260901113014 67 321 0.0 0.0 0.00 0.25 0.00 89 1009.3
20260901111516 68 321 0.0 0.0 0.00 0.25 0.00 89 1009.2
20260901110012 68 321 0.0 0.0 0.00 0.25 0.00 88 1009.2
20260901104509 68 321 0.0 0.0 0.00 0.25 0.00 86 1009.2
20260901103008 69 321 0.0 0.0 0.00 0.25 0.00 86 1009.0
20260901101514 68 321 0.0 0.0 0.00 0.25 0.00 88 1008.8
20260901100005 69 321 0.0 0.0 0.00 0.25 0.00 86 1008.8
20260901094503 69 321 0.0 0.0 0.00 0.25 0.00 86 1008.8
20260901093002 69 321 0.0 0.0 0.00 0.25 0.00 86 1008.8
20260901091601 70 321 0.0 0.0 0.00 0.25 0.00 85 1008.7
20260901090108 69 321 0.0 2.0 0.00 0.25 0.00 85 1008.8
20260901084600 69 321 0.0 0.0 0.00 0.25 0.00 86 1008.8
20260901083059 70 321 0.0 2.0 0.00 0.25 0.00 87 1008.8
20260901081602 69 321 0.0 0.0 0.00 0.25 0.00 86 1008.8
20260901080150 70 321 0.0 0.0 0.00 0.25 0.00 85 1008.7
20260901074554 70 321 0.0 0.0 0.00 0.25 0.00 83 1008.7
20260901073053 70 321 0.0 0.0 0.00 0.25 0.00 83 1008.8
20260901071550 71 321 0.0 0.0 0.00 0.25 0.00 82 1008.8
20260901070053 71 321 0.0 0.0 0.00 0.25 0.00 82 1008.9
20260901064554 72 110 0.0 0.0 0.00 0.25 0.25 80 1008.8
20260901063056 72 110 0.0 0.0 0.00 0.25 0.25 78 1008.9
20260901061600 74 110 0.0 0.0 0.00 0.25 0.25 74 1008.9
20260901060045 76 267 0.0 4.0 0.00 0.25 0.25 65 1008.8
20260901054550 75 326 1.0 4.0 0.00 0.25 0.25 69 1008.6
20260901053044 74 314 1.0 3.0 0.00 0.25 0.25 74 1008.5
20260901051543 74 309 0.0 0.0 0.00 0.25 0.25 75 1008.7
20260901050043 74 293 0.0 2.0 0.00 0.25 0.25 74 1008.7
20260901044558 74 324 1.0 4.0 0.00 0.25 0.25 76 1008.9
20260901043042 73 314 0.0 0.0 0.00 0.25 0.25 77 1008.9
20260901041540 73 314 0.0 0.0 0.00 0.25 0.25 74 1008.9
20260901040053 74 314 0.0 0.0 0.00 0.25 0.25 75 1008.7
20260901034540 74 314 0.0 0.0 0.00 0.25 0.25 77 1008.5
20260901033039 74 298 0.0 0.0 0.00 0.25 0.25 80 1008.4
20260901031537 73 298 0.0 0.0 0.00 0.25 0.25 78 1008.3